{"data":{"norad_id":61865,"intl_designator":"2024-202W","name":"STARLINK-32401","alt_names":[],"object_type":"PAYLOAD","status":"ACTIVE","operator":null,"country":"US","launch_date":"2024-11-07","launch_site_code":"AFETR","launch_vehicle":null,"mission":null,"orbit_class":"UNKNOWN","rcs_meters":null,"size_class":null,"mass_kg":null,"dimensions":null,"purposes":["comms"],"wikipedia_slug":null,"has_3d_model":false,"image_url":null,"decayed_at":null,"tle_current":{"epoch":"2026-05-25T03:02:52.182240Z","epoch_age_seconds":70880,"freshness":"FRESH","line1":"1 61865U 24202W   26145.12699285  .00002266  00000+0  91843-4 0  9990","line2":"2 61865  43.0004 166.6614 0001463 264.5226  95.5458 15.27582184 87026","mean_motion":15.27582184,"eccentricity":0.0001463,"inclination_deg":43.0004,"raan_deg":166.6614,"arg_perigee_deg":264.5226,"mean_anomaly_deg":95.5458,"bstar":9.1843e-5,"rev_number":8702,"period_min":94.266613939509,"perigee_km":482.03876579666,"apogee_km":484.04634693485,"semimajor_km":6861.1795563658,"source":"CELESTRAK","updated_at":"2026-05-25T13:38:19.453867Z"}}}